Regional Weather Roundup
Issued by NWS Upton, NY

Current Version | Previous Version | Graphics & Text | Print | Product List | Glossary Off
Versions: 1 2 3 4 5 6 7 8 9 10 11 12 13 14 15 16 17 18 19 20 21 22 23 24 25 26 27 28 29 30 31 32 33 34 35 36 37 38 39 40 41 42 43 44 45 46 47 48 49

707
ASUS41 KOKX 121204
RWROKX

REGIONAL WEATHER ROUNDUP
NATIONAL WEATHER SERVICE NEW YORK NY
700 AM EST FRI FEB 12 2016

NOTE: "FAIR" INDICATES FEW OR NO CLOUDS BELOW 12,000 FEET WITH NO
SIGNIFICANT WEATHER AND/OR OBSTRUCTIONS TO VISIBILITY.

NYZ071-072-176-178-NJZ106-104-121300-
NEW YORK CITY METRO AREA


CITY           SKY/WX    TMP DP  RH WIND       PRES   REMARKS
CENTRAL PARK   CLEAR     16  -2  45 W9        30.27F WCI   4
LAGUARDIA APRT CLEAR     17   1  49 NW16      30.26F WCI   2
KENNEDY INTL   PTCLDY    17  -1  45 NW10      30.29R WCI   5
NEWARK/LIBERTY CLEAR     15   0  51 W6        30.28R WCI   6
BRNX BOT. GARD   N/A     16   1  53 W7        30.26F WCI   6
TETERBORO      PTCLDY    15   0  51 VRB3      30.27S
$$

NYZ177-179-078>081-121300-
LONG ISLAND NEW YORK

CITY           SKY/WX    TMP DP  RH WIND       PRES   REMARKS
FARMINGDALE    CLEAR     16  -1  47 W8        30.26R WCI   5
ISLIP          PTCLDY    14   0  53 W5        30.25R WCI   6
SHIRLEY        CLEAR      6  -3  66 CALM      30.26R
RIVERHEAD        N/A     14  -4  44 CALM      30.23R
WESTHAMPTON    CLEAR     -2  -9  72 S3        30.28R
EAST HAMPTON   FAIR      13   2  62 CALM      30.24R
MONTAUK POINT    N/A     17   6  62 W9        30.25R WCI   6
$$

NYZ052-065-067-121300-
HUDSON VALLEY

CITY           SKY/WX    TMP DP  RH WIND       PRES   REMARKS
WHITE PLAINS   CLEAR     13  -1  54 W12       30.21S WCI  -1
NEWBURGH       CLEAR      9   1  72 W7        30.22R WCI  -3
MONTGOMERY     CLEAR      9   0  67 W5        30.21S WCI   1
POUGHKEEPSIE   CLEAR     14   0  53 SW5       30.23R WCI   6
ALBANY         PTCLDY     4  -2  76 CALM      30.19S
$$

NJZ001-105-106-008-010-013-015-019>022-104-121300-
NEW JERSEY

CITY           SKY/WX    TMP DP  RH WIND       PRES   REMARKS
NEWARK/LIBERTY CLEAR     15   0  51 W6        30.28R WCI   6
TETERBORO      PTCLDY    15   0  51 VRB3      30.27S
CALDWELL       PTCLDY    14  -1  51 W5        30.26F WCI   6
MORRISTOWN     CLEAR     12   3  67 CALM      30.27R
SOMERVILLE     CLEAR      8   3  80 CALM      30.26S
SUSSEX         MIX PCPN   8  -1  66 CALM      30.21S
ANDOVER          N/A      9   1  70 CALM      30.22S
TRENTON        PTCLDY    14   0  53 W5        30.27S WCI   6
MILLVILLE      CLEAR    N/A N/A N/A CALM      30.31S
ATLANTIC CITY  CLEAR     14   4  64 SW5       30.31R WCI   6
WRIGHTSTOWN    CLEAR     13   4  67 SW5       30.27R WCI   5
TOMS RIVER     PTCLDY     9   1  72 CALM      30.30S
BELMAR         CLEAR     14  -2  48 CALM      30.27R
$$

PAZ047>061-062-071-121300-
EASTERN PENNSYLVANIA

CITY           SKY/WX    TMP DP  RH WIND       PRES   REMARKS
PHILADELPHIA   PTCLDY    16   1  51 W6        30.32R WCI   7
ALLENTOWN      PTCLDY    10  -1  61 W5        30.25S WCI   2
SCRANTON       CLEAR      9   1  70 S5        30.16F WCI   1
$$

CTZ002-004>006-009-010-012-RIZ004-006-007-MAZ004-011-015-121300-
SOUTHERN NEW ENGLAND
 IN CT

CITY           SKY/WX    TMP DP  RH WIND       PRES   REMARKS
BRADLEY INTL   CLEAR      7  -2  66 S8        30.20R WCI  -6
HARTFORD       CLEAR      9  -1  64 SW5       30.23S WCI   1
DANBURY        CLEAR      8  -3  61 W5        30.22R WCI   0
WTRBRY/OXFORD  CLEAR      3  -9  55 SW5       30.17S WCI  -6
BRIDGEPORT     CLEAR     14   1  56 W12       30.25S WCI   0
MERIDEN        CLEAR      2  -4  76 CALM      30.24R
NEW HAVEN      CLEAR     13   3  64 VRB3      30.24S
CHESTER        FAIR      10   1  67 W5        30.20S WCI   2
GROTON         CLEAR     10   1  67 W10       30.24R WCI  -4
WILLIMANTIC    CLEAR      0  -7  72 CALM      30.22R

 IN RI

CITY           SKY/WX    TMP DP  RH WIND       PRES   REMARKS
PROVIDENCE     PTCLDY     7  -5  57 W6        30.22R WCI  -3
BLOCK ISLAND   CLEAR     16   3  57 NW13G21   30.20R WCI   2
WESTERLY       CLEAR      8  -2  63 CALM      30.24R

 IN MA

CITY           SKY/WX    TMP DP  RH WIND       PRES   REMARKS
BOSTON         PTCLDY     8  -6  52 W14G24    30.19R WCI  -8
WORCESTER      CLEAR     -2 -10  69 SW8       30.09R WCI -17
WESTFIELD      CLEAR      7  -3  64 W7        30.19R WCI  -5
PROVINCETOWN   PTCLDY    13   4  67 NW17G26   30.18R WCI  -4
NANTUCKET      CLEAR     16   1  51 NW12G20   30.20R WCI   3
$$

ANZ330-335-338-340-345-350-353-355-121300-
COASTAL MARINE OBSERVATIONS


STATION/POSITION TIME  SKY/WX   TEMP    WIND        PRES    VSBY  WAVE
                                AIR SEA DIR/SP/G                  HT/PER
                 (UTC)          (F)     (DEG/KT/KT) (MB)    (MI)  (FT/S)
NY HARB ENTRANCE 1050            20 42  300/ 16/ 19 1024.5          3/ 4
4S FIRE IS       NOT AVBL
20S FIRE ISLAND  1050            21 42  320/ 17/ 23 1024.5          4/ 6
GREAT SOUTH BAY  NOT AVBL
23SW MTP         1150            19 45  290/ 10/ 16 1024.2          5/ 7
HUDSON CANYON    1050            25 47              1024.1          8/ 7
KINGS POINT      1100            17 35  350/ 14/ 18 1024.4
EXECUTION ROCKS  NOT AVBL
CENTRAL LI SOUND 1100            17     280/ 14/ 17   N/A           2/ 4
EASTERN LI SOUND 1100            18 41  300/ 14/ 19   N/A
ROBBINS REEF     1100            17     300/ 12/ 16 1024.3
$$


>>>>>>>>>>>>>>>>>>>>>>>>>>>> KEY <<<<<<<<<<<<<<<<<<<<<<<<<<<
>                                                          <
>     SKY/WX - SKY CONDITION/PRESENT WEATHER               <
>     TMP    - TEMPERATURE IN FAHRENHEIT                   <
>     DP     - DEWPOINT IN FAHRENHEIT                      <
>     RH     - RELATIVE HUMIDITY IN PERCENT                <
>     WIND   - DIRECTION AND SPEED IN MPH                  <
>     PRES   - MEAN SEA LEVEL PRESSURE IN INCHES OF HG     <
>     WCI    - WIND CHILL INDEX                            <
>     VSB    - VISIBILITY IN MILES                         <
>     HX     - HEAT INDEX                                  <
>     TC     - TEMPERATURE IN CELSIUS                      <
>     VRB    - VARIABLE WIND DIRECTION                     <
>                                                          <
>>>>>>>>>>>>>>>>>>>>>>>>>>>> KEY <<<<<<<<<<<<<<<<<<<<<<<<<<<






USA.gov is the U.S. government's official web portal to all federal, state and local government web resources and services.